Location: Observatory
(52.1446°N, 0.4624°W)
Time: 20:09:47
(UTC+01:00)

ISS - Pass Details

Date: 22 May 2019
Orbit: 408 x 418 km, 51.6° (Epoch: 18 June)

Event Time Altitude Azimuth Distance (km) Brightness Sun altitude
Rises 23:11:07 0° 266° (W) 2,356 0.3 -13.7°
Reaches altitude 10° 23:13:12 10° 265° (W) 1,496 -0.7 -13.8°
Maximum altitude 23:16:34 84° 177° (S) 426 -3.9 -14.1°
Drops below altitude 10° 23:19:57 10° 90° (E) 1,502 -1.2 -14.3°
Enters shadow 23:20:40 - 90° (E) 1,798 -0.8 -14.3°
